Flag for U.S.A. Weather past 2 weeks in Sheboygan, Wisconsin, U.S.A.

Now
64 °F

Fog.


Feels Like: 64 °F
Forecast: 65 / 72 °F
Wind: 6 mph from Northwest

Location: Sheboygan County Memorial Airport

Current Time: Sep 4, 2015 at 3:00:49 AM

Latest Report: Sep 4, 2015 at 1:53 AM


Visibility: 6 mi

Pressure: 29.97 "Hg

Humidity: 97%

Dew point: 63 °F

Location of SheboyganLocation

Historic Weather in Sheboygan — Graph

°F

Sheboygan temperature yesterday

Maximum temperature yesterday: 77 °F (at 3:53 PM)
Minimum temperature yesterday: 62 °F (at 8:58 PM)
Average temperature yesterday: 71 °F

Past Weeks' High & Low Weather Summary

 TemperatureHumidityPressure
High88 °F (Sep 1, 2:53 PM)100% (Aug 26, 11:53 PM)30.20 "Hg (Aug 26, 11:53 PM)
Low49 °F (Aug 26, 11:53 PM)52% (Aug 21, 12:53 PM)29.61 "Hg (Aug 20, 2:53 AM)
Average64 °F82%29.99 "Hg
* Reported Aug 20 1:53 AM — Sep 4 1:53 AM, Sheboygan, Weather by CustomWeather, © 2015

Note: Actual official high and low records may vary slightly from our data, if they occured in-between our weather recording intervals... More about our weather records

Advertising

Sheboygan weather history for previous 24 hours

 ConditionsComfort  
Time TempWeatherWind HumidityBarometerVisibility
1:53 AM
Fri, Sep 4
64 °FFog.6 mph97%29.97 "Hg6 mi
1:02 AM61 °FFog.3 mph97%29.97 "Hg3 mi
11:58 PM
Thu, Sep 3
62 °FFog.No wind96%29.96 "Hg3 mi
10:53 PM64 °FFog.3 mph97%29.95 "Hg6 mi
9:53 PM65 °FClear.8 mph97%29.95 "Hg8 mi
8:58 PM62 °FFog.No wind96%29.96 "Hg2 mi
7:53 PM64 °FSunny.6 mph94%29.93 "Hg7 mi
6:53 PM66 °FPartly sunny.8 mph93%29.93 "Hg10 mi
5:53 PM70 °FPartly sunny.10 mph87%29.92 "Hg10 mi
5:02 PM77 °FScattered clouds.10 mph69%29.92 "Hg10 mi
4:53 PM77 °FPartly sunny.10 mph69%29.91 "Hg10 mi
3:53 PM77 °FScattered clouds.12 mph71%29.91 "Hg10 mi
2:53 PM75 °FMore clouds than sun.10 mph76%29.92 "Hg10 mi
1:53 PM76 °FOvercast.10 mph74%29.92 "Hg10 mi
12:53 PM74 °FOvercast.12 mph79%29.93 "Hg9 mi
11:53 AM74 °FOvercast.8 mph82%29.93 "Hg10 mi
10:53 AM75 °FPartly sunny.10 mph85%29.91 "Hg6 mi
9:53 AM73 °FFog.5 mph90%29.90 "Hg5 mi
9:03 AM74 °FFog.5 mph91%29.92 "Hg5 mi
8:53 AM74 °FFog.No wind91%29.90 "Hg5 mi
7:53 AM72 °FFog.5 mph93%29.89 "Hg4 mi
6:53 AM71 °FFog.6 mph96%29.88 "Hg4 mi
6:03 AM71 °FStrong thunderstorms. Fog.7 mph93%29.90 "Hg2 mi
5:53 AM71 °FThunderstorms. Partly cloudy.6 mph90%29.89 "Hg7 mi
4:53 AM68 °FPartly cloudy.8 mph93%29.88 "Hg10 mi
3:53 AM72 °FThundershowers. Partly cloudy.12 mph84%29.91 "Hg8 mi
Weather by CustomWeather, © 2015

See weather overviewHow to use our weather pages